Flag for Uruguay Weather past 2 weeks in Maldonado, Uruguay

Now
N/A


Feels Like: N/A
Forecast: 56 / 74 °F
Wind: 10 mph from Southwest

Location: Capitan Corbeta

Current Time: Apr 1, 2015 at 1:35:18 PM

Latest Report: Apr 1, 2015 at 1:00 PM


Visibility: 99 mi

Pressure: N/A

Humidity: N/A

Dew point: N/A

Location of MaldonadoLocation

Historic Weather in Maldonado — Graph

°F

Maldonado temperature yesterday

Maximum temperature yesterday: 73 °F (at 11:00 AM)
Minimum temperature yesterday: 61 °F (at 1:00 AM)
Average temperature yesterday: 66 °F

Past Weeks' High & Low Weather Summary

 TemperatureHumidityPressure
High90 °F (Mar 20, 2:00 PM)94% (Mar 18, 7:00 AM)30.18 "Hg (Mar 18, 7:00 AM)
Low46 °F (Mar 23, 6:00 AM)36% (Mar 20, 2:00 PM)29.71 "Hg (Mar 20, 2:00 PM)
Average66 °F70%30.03 "Hg
* Reported Mar 17 12:00 Noon — Apr 1 12:00 Noon, Maldonado, Weather by CustomWeather, © 2015

Note: Actual official high and low records may vary slightly from our data, if they occured in-between our weather recording intervals... More about our weather records

Advertising

Maldonado weather history for previous 24 hours

 ConditionsComfort  
Time TempWeatherWind HumidityBarometerVisibility
12:00 PM
Wed, Apr 1
72 °FPassing clouds.8 mph53%30.04 "HgN/A
11:00 AM70 °FScattered clouds.8 mph57%30.04 "HgN/A
10:00 AM66 °FPassing clouds.5 mph78%30.04 "HgN/A
9:00 AM59 °FSunny.5 mph88%30.04 "Hg10 mi
8:00 AM54 °FLight fog.5 mph94%30.04 "Hg5 mi
7:00 AM52 °FLight fog.6 mph88%30.04 "Hg5 mi
6:00 AM52 °FPassing clouds.7 mph88%30.01 "HgN/A
4:00 AM54 °FPassing clouds.5 mph88%30.01 "HgN/A
2:00 AM55 °FPassing clouds.6 mph82%30.04 "HgN/A
1:00 AM59 °FPassing clouds.3 mph77%30.04 "HgN/A
12:00 AM63 °FPassing clouds.3 mph73%30.04 "HgN/A
11:00 PM
Tue, Mar 31
64 °FPassing clouds.8 mph73%30.04 "HgN/A
10:00 PM64 °FPassing clouds.8 mph68%30.04 "HgN/A
9:00 PM64 °FPassing clouds.12 mph68%30.01 "HgN/A
8:00 PM66 °FPassing clouds.9 mph73%29.98 "HgN/A
7:00 PM66 °FPassing clouds.10 mph73%29.98 "HgN/A
6:00 PM68 °FPassing clouds.15 mph73%29.95 "HgN/A
5:00 PM70 °FPartly sunny.14 mph69%29.92 "HgN/A
4:00 PM70 °FPartly sunny.16 mph69%29.92 "HgN/A
3:00 PM70 °FPartly sunny.9 mph69%29.92 "HgN/A
2:00 PM72 °FScattered clouds.15 mph69%29.92 "HgN/A
1:00 PM72 °FScattered clouds.12 mph73%29.92 "HgN/A
Weather by CustomWeather, © 2015

See weather overviewHow to use our weather pages